Gulfport, MS

5:03 AM CDT on May 27, 2017 (GMT -0500)
Gulfport-Biloxi Regional

Weather History for KGPT - August, 2013

Change the Weather History Date:

Tuesday, August 13, 2013

  Actual Average Record
Temperature  
Mean Temperature 83 °F -  
Max Temperature 93 °F 90 °F 97 °F (1954)
Min Temperature 75 °F 72 °F 63 °F (2004)
Cooling Degree Days 18    
Growing Degree Days 33 (Base 50)    
Moisture  
Dew Point 75 °F    
Average Humidity 82    
Maximum Humidity 94    
Minimum Humidity 55    
Precipitation  
Precipitation 0.06 in - - ()
Sea Level Pressure  
Sea Level Pressure 30.00 in    
Wind  
Wind Speed 3 mph (WNW)    
Max Wind Speed 12 mph    
Max Gust Speed 18 mph    
Visibility 10 miles    
Events Rain    
Averages and records for this station are not official NWS values.
T = Trace of Precipitation, MM = Missing Value Source: NWS Daily Summary

Daily Weather History Graph

Daily Weather History Graph

Search for Another Location

Airport or City:

Trip Planner

Search our weather history database for the weather conditions in past years. The results will help you decide how hot, cold, wet, or windy it might be!

Date:

Astronomy

Aug. 13, 2013 Rise Set
Actual Time 6:22 AM CDT 7:39 PM CDT
Civil Twilight 5:56 AM CDT 8:04 PM CDT
Nautical Twilight 5:26 AM CDT 8:35 PM CDT
Astronomical Twilight 4:55 AM CDT 9:06 PM CDT
Moon 12:43 PM CDT (8/13) 11:48 PM CDT (8/13)
Length of Visible Light 14h 08m
Length of Day
13h 17m
Waxing Crescent, 42% of the Moon is Illuminated
Aug 13
Waxing Crescent
Aug 14
First Quarter
Aug 20
Full
Aug 28
Last Quarter
Sep 5
New

Hourly Weather History & Observations

Time (CDT) Temp. Heat Index Dew Point Humidity Pressure Visibility Wind Dir Wind Speed Gust Speed Precip Events Conditions
12:53 AM 78.1 °F - 75.0 °F 90% 30.04 in 10.0 mi Calm Calm - N/A   Clear
1:53 AM 79.0 °F - 75.0 °F 88% 30.02 in 10.0 mi Calm Calm - N/A   Clear
2:53 AM 78.1 °F - 75.0 °F 90% 30.01 in 10.0 mi Calm Calm - N/A   Clear
3:53 AM 77.0 °F - 73.9 °F 90% 30.00 in 10.0 mi Calm Calm - N/A   Partly Cloudy
4:53 AM 78.1 °F - 73.9 °F 87% 30.00 in 10.0 mi Calm Calm - N/A   Clear
5:53 AM 77.0 °F - 73.9 °F 90% 30.00 in 10.0 mi Calm Calm - N/A   Clear
6:53 AM 78.1 °F - 75.9 °F 93% 30.01 in 10.0 mi NW 3.5 mph - N/A   Clear
7:53 AM 82.0 °F 91.0 °F 78.1 °F 88% 30.02 in 10.0 mi West 3.5 mph - N/A   Clear
8:53 AM 84.9 °F 96.6 °F 78.1 °F 80% 30.03 in 10.0 mi WNW 10.4 mph - N/A   Scattered Clouds
9:00 AM 86.0 °F 99.3 °F 78.8 °F 79% 30.03 in 10.0 mi WNW 10.4 mph - N/A   Mostly Cloudy
9:22 AM 87.8 °F 99.7 °F 77.0 °F 70% 30.03 in 10.0 mi WNW 11.5 mph - N/A   Scattered Clouds
9:53 AM 88.0 °F 100.2 °F 77.0 °F 70% 30.02 in 10.0 mi West 8.1 mph - N/A   Scattered Clouds
10:53 AM 90.0 °F 100.2 °F 75.0 °F 61% 30.04 in 10.0 mi WSW 4.6 mph - N/A   Partly Cloudy
11:53 AM 91.0 °F 100.4 °F 73.9 °F 57% 30.02 in 10.0 mi South 8.1 mph - N/A   Scattered Clouds
12:53 PM 88.0 °F 97.5 °F 75.0 °F 65% 29.99 in 10.0 mi Variable 3.5 mph - 0.00 in   Mostly Cloudy
1:53 PM 91.9 °F 101.3 °F 73.9 °F 55% 29.97 in 8.0 mi SW 8.1 mph 16.1 mph N/A   Partly Cloudy
2:53 PM 89.1 °F 98.0 °F 73.9 °F 61% 29.97 in 9.0 mi WSW 11.5 mph 18.4 mph N/A   Mostly Cloudy
3:53 PM 77.0 °F - 73.0 °F 88% 29.98 in 10.0 mi Variable 3.5 mph - 0.02 in Rain Light Rain
4:53 PM 78.1 °F - 73.9 °F 87% 29.96 in 10.0 mi North 3.5 mph - 0.01 in Rain Light Rain
5:53 PM 78.1 °F - 75.0 °F 90% 30.00 in 10.0 mi North 4.6 mph - 0.01 in Rain Light Rain
6:48 PM 78.8 °F - 73.4 °F 83% 30.00 in 10.0 mi NNW 8.1 mph - 0.01 in   Overcast
6:53 PM 78.1 °F - 73.9 °F 87% 30.00 in 10.0 mi NNW 8.1 mph - 0.01 in   Overcast
7:53 PM 75.9 °F - 72.0 °F 87% 29.97 in 10.0 mi Calm Calm - 0.01 in   Scattered Clouds
8:12 PM 75.2 °F - 73.4 °F 94% 29.96 in 10.0 mi WNW 3.5 mph - N/A   Partly Cloudy
8:53 PM 75.0 °F - 73.0 °F 94% 29.96 in 10.0 mi Calm Calm - N/A   Clear
9:53 PM 75.0 °F - 73.0 °F 94% 30.00 in 10.0 mi West 4.6 mph - N/A   Clear
10:53 PM 75.0 °F - 72.0 °F 90% 29.99 in 10.0 mi West 3.5 mph - N/A   Clear
11:53 PM 75.9 °F - 73.0 °F 91% 29.97 in 10.0 mi Calm Calm - N/A   Clear